sat.trackr.live / text

‹ back to catalog

YAOGAN-15

NORAD 38354 · 2012-029A

PAYLOAD ACTIVE UNKNOWN

§ Identity

Operator
Country
PRC
Launch date
2012-05-29
Launch site
TAISC
Launch vehicle
Mass (kg)
RCS (m²)
3.06

External: N2YO · Heavens-Above · Gunter

§ Orbital elements

Epoch: 2026-05-25T04:19:49.710144Z

Period
109.22 min
Inclination
100.7380°
Eccentricity
0.0025260
Mean motion
13.18381382 rev/d
Perigee alt
1,171.8 km
Apogee alt
1,210.0 km
Semi-major
7,569.0 km
B*
-9.6578e-4
RAAN
349.5296°
Arg perigee
344.9910°
Mean anomaly
15.0451°
Rev number
67,241

§ Raw data

YAOGAN-151 38354U 12029A   26145.18043646 -.00000427  00000+0 -96578-3 0  99992 38354 100.7380 349.5296 0025260 344.9910  15.0451 13.18381382672411

JSON: /api/v1/satellites/38354 · /tle

For live sub-satellite position, see the globe view (requires WebGL).

§ Visibility from observer

Set your observer location to see the next 7 days of passes ≥ 10°. The values pass through the URL so the page stays shareable.

No JS? Fill the form by hand. The geolocation button needs JavaScript.